IVALO current weather conditions

sailwx.info

Wind from 270 at 3 knots

Air temperature -0.0° C
Visibility: greater than 5.4 NM
Dewpoint -4.0° C

Last reported at 2015-Apr-25 20:20 UTC.
Time now 2015-Apr-25 21:52 UTC

Location: N 68°37' E 027°25'.
View on Google Maps.

See reports from other nearby stations

  
Tides and Currents Weather Stations Pressure Air Temp Water Temp Dewpoint Dewpoint Depression Visibility Wind Speed Wind Dir Waves Ship Positions
date/time (UTC)wind fromknots sea level pressurealtimeterstation pressurevisibilityair tempwater tempwave heightnotes
2015-Apr-25 20:20 270 3 5.4-0.0
2015-Apr-25 19:50 290 3 5.4-0.0
2015-Apr-25 19:20 300 3 5.4-0.0
2015-Apr-25 18:50 320 3 1.0
2015-Apr-25 18:20 330 2 5.4 1.0
2015-Apr-25 17:50 330 3 5.4 1.0
2015-Apr-25 17:20 360 3 5.4 1.0
2015-Apr-25 16:50 350 6 5.4 1.0
2015-Apr-25 16:20 330 5 5.4 1.0
2015-Apr-25 15:50 320 5 5.4 1.0
2015-Apr-25 15:20 340 5 5.4 1.0
2015-Apr-25 14:50 350 7 5.4 1.0
2015-Apr-25 14:20 360 7 5.4 1.0
2015-Apr-25 13:50 360 6 5.4 1.0 Light precipitation showers.
2015-Apr-25 13:20 360 9 5.4 1.0
2015-Apr-25 12:50 340 7 5.4 2.0
2015-Apr-25 12:20 360 6 2.0
2015-Apr-25 11:50 340 7 5.4 1.0
2015-Apr-25 11:20 350 6 5.4 2.0
2015-Apr-25 10:50 340 6 5.4 1.0
2015-Apr-25 10:20 020 7 5.4 1.0
2015-Apr-25 09:50 340 7 5.4 1.0
2015-Apr-25 09:20 030 8 5.4 1.0
2015-Apr-25 08:50 030 9 5.4 1.0
2015-Apr-25 08:20 360 6 5.4-0.0
2015-Apr-25 07:50 010 5 5.4-0.0
2015-Apr-25 07:20 010 9 5.4-1.0
2015-Apr-25 06:50 030 6 5.4-1.0
2015-Apr-25 06:20 010 8 5.4-1.0
2015-Apr-25 05:50 010 7 5.4-1.0
2015-Apr-25 05:20 340 5 5.4-2.0
2015-Apr-25 04:50 340 4 5.4-2.0 Light snow.
2015-Apr-25 04:20 270 1 5.4-3.0 Light snow.
2015-Apr-25 03:50 220 2 4.9-4.0 Light snow.
2015-Apr-25 03:20 220 2 5.4-4.0 Light snow.
2015-Apr-25 02:50 230 4 5.4-5.0 Light snow.
2015-Apr-25 02:20 220 1 2.6-5.0 Light snow.
2015-Apr-25 01:50 120 1 5.4-6.0 Light snow.
2015-Apr-25 01:20 230 4 -6.0
2015-Apr-25 00:50 230 4 -6.0
2015-Apr-25 00:20 180 1 -5.0
2015-Apr-24 23:50 130 2 -6.0
2015-Apr-24 23:20 030 1 -5.0
2015-Apr-24 22:50 340 3 -5.0
2015-Apr-24 22:20 020 3 -5.0
2015-Apr-24 21:50 030 3 -4.0
2015-Apr-24 21:20 040 4 -4.0
2015-Apr-24 20:50 030 5 -4.0
2015-Apr-24 20:20 020 3 5.4-4.0
2015-Apr-24 19:50 030 5 5.4-3.0
2015-Apr-24 19:20 020 3 -3.0
2015-Apr-24 18:50 040 4 -2.0
2015-Apr-24 18:20 060 6 -1.0
2015-Apr-24 17:50 060 5 -1.0
2015-Apr-24 17:20 040 8 5.4-1.0
2015-Apr-24 16:50 060 7 5.4-0.0
2015-Apr-24 16:20 070 7 5.4-1.0
2015-Apr-24 15:50 070 7 5.4-0.0
2015-Apr-24 15:20 050 7 5.4-0.0
2015-Apr-24 14:50 050 5 5.4-0.0
2015-Apr-24 14:20 060 11 5.4-0.0 Light snow showers.
2015-Apr-24 13:50 050 7 5.4-0.0 Light snow showers.
2015-Apr-24 13:20 050 7 5.4-0.0 Light snow showers.
2015-Apr-24 12:50 040 9 5.4-0.0 Light precipitation showers.
2015-Apr-24 12:20 040 10 5.4-0.0 Light precipitation showers.
2015-Apr-24 11:50 040 9 5.4-1.0
2015-Apr-24 11:20 060 9 5.4-0.0
2015-Apr-24 10:50 040 13 5.4-1.0 Light precipitation showers.
2015-Apr-24 10:20 070 11 5.4-1.0
2015-Apr-24 09:50 060 10 5.4-1.0
2015-Apr-24 09:23 060 11 5.4-1.0 Light snow showers.
2015-Apr-24 08:50 070 10 5.4-1.0
2015-Apr-24 08:20 080 10 5.4-1.0
2015-Apr-24 07:50 060 11 5.4-1.0
2015-Apr-24 07:20 070 8 5.4-1.0
2015-Apr-24 06:50 030 10 5.4-2.0
2015-Apr-24 06:20 040 7 5.4-2.0 Light snow showers.
2015-Apr-24 05:50 040 10 5.4-2.0 Light snow.
2015-Apr-24 05:20 040 8 5.4-3.0 Light snow.
2015-Apr-24 04:50 030 9 4.3-3.0 Light snow.
2015-Apr-24 04:20 030 6 5.4-2.0 Light snow.
2015-Apr-24 03:50 030 7 5.4-2.0 Light snow.
2015-Apr-24 03:20 040 6 1.9-3.0 Light snow.
2015-Apr-24 02:50 030 10 2.7-2.0 Light snow.
2015-Apr-24 02:20 030 7 5.4-2.0 Light snow showers.
2015-Apr-24 01:50 010 1 3.2-3.0 Light snow showers.
2015-Apr-24 01:20 110 2 1.8-3.0 Light snow. Mist.
2015-Apr-24 00:50 120 1 3.8-3.0
2015-Apr-24 00:20 120 1 1.9-3.0 Mist.
2015-Apr-23 23:50 5.4-4.0
2015-Apr-23 23:20 020 1 5.4-4.0
2015-Apr-23 22:50 090 2 5.4-4.0
2015-Apr-23 22:20 -4.0
2015-Apr-23 21:50 230 2 -4.0
2015-Apr-23 21:20 -3.0